TimeCST,TemperatureF,Dew PointF,Humidity,Sea Level PressureIn,VisibilityMPH,Wind Direction,Wind SpeedMPH,Gust SpeedMPH,PrecipitationIn,Events,Conditions,WindDirDegrees,DateUTC
12:56 AM,-10.8,-9999,N/A,30.29,10.0,WNW,8.1,-,N/A,,Clear,290,2013-12-30 06:56:00
1:56 AM,-11.9,-9999,N/A,30.30,10.0,NW,9.2,-,N/A,,Clear,310,2013-12-30 07:56:00
2:56 AM,-13.0,-9999,N/A,30.31,10.0,WNW,9.2,-,N/A,,Clear,300,2013-12-30 08:56:00
3:56 AM,-15.9,-9999,N/A,30.30,10.0,West,4.6,-,N/A,,Clear,260,2013-12-30 09:56:00
4:56 AM,-17.9,-9999,N/A,30.31,10.0,West,4.6,-,N/A,,Clear,260,2013-12-30 10:56:00
5:56 AM,-17.0,-9999,N/A,30.32,10.0,West,3.5,-,N/A,,Clear,270,2013-12-30 11:56:00
6:56 AM,-19.8,-9999,N/A,30.34,10.0,Calm,Calm,-,N/A,,Clear,0,2013-12-30 12:56:00
7:56 AM,-20.9,-9999,N/A,30.36,10.0,WSW,4.6,-,N/A,,Clear,240,2013-12-30 13:56:00
8:56 AM,-15.0,-9999,N/A,30.38,10.0,West,4.6,-,N/A,,Clear,280,2013-12-30 14:56:00
9:56 AM,-9.9,-9999,N/A,30.38,10.0,West,4.6,-,N/A,,Clear,280,2013-12-30 15:56:00
10:56 AM,-6.0,-9999,N/A,30.35,10.0,West,4.6,-,N/A,,Clear,280,2013-12-30 16:56:00
11:56 AM,-4.0,-9999,N/A,30.32,10.0,Calm,Calm,-,N/A,,Clear,0,2013-12-30 17:56:00
12:56 PM,-0.9,-9999,N/A,30.29,10.0,Calm,Calm,-,N/A,,Clear,0,2013-12-30 18:56:00
1:56 PM,0.1,-9999,N/A,30.27,10.0,West,3.5,-,N/A,,Partly Cloudy,260,2013-12-30 19:56:00
2:56 PM,0.1,-9999,N/A,30.27,10.0,SSW,4.6,-,N/A,,Partly Cloudy,210,2013-12-30 20:56:00
3:56 PM,1.0,-9999,N/A,30.26,10.0,West,3.5,-,N/A,,Overcast,260,2013-12-30 21:56:00
4:56 PM,0.1,-9999,N/A,30.26,10.0,West,3.5,-,N/A,,Overcast,270,2013-12-30 22:56:00
5:56 PM,-0.4,-9999,N/A,30.19,5.0,West,4.6,-,N/A,Snow,Light Snow,260,2013-12-30 23:56:00
6:44 PM,-0.4,-9999,N/A,30.19,3.0,West,4.6,-,0.00,Snow,Light Snow,270,2013-12-31 00:44:00
6:56 PM,-0.9,-9999,N/A,30.27,6.0,WSW,3.5,-,0.00,Snow,Light Snow,250,2013-12-31 00:56:00
7:56 PM,0.1,-9999,N/A,30.27,4.0,WSW,3.5,-,0.00,Snow,Light Snow,240,2013-12-31 01:56:00
8:05 PM,-0.4,-9999,N/A,30.19,3.0,WSW,4.6,-,0.00,Snow,Light Snow,250,2013-12-31 02:05:00
8:43 PM,-0.4,-9999,N/A,30.19,9.0,WSW,5.8,-,0.00,,Overcast,250,2013-12-31 02:43:00
8:56 PM,-0.4,-9999,N/A,30.19,4.0,West,4.6,-,N/A,Snow,Light Snow,260,2013-12-31 02:56:00
9:18 PM,-0.4,-9999,N/A,30.19,3.0,West,4.6,-,0.00,Snow,Light Snow,260,2013-12-31 03:18:00
9:20 PM,-0.4,-9999,N/A,30.18,2.5,West,4.6,-,0.00,Snow,Light Snow,260,2013-12-31 03:20:00
9:32 PM,-0.4,-9999,N/A,30.18,2.5,West,4.6,-,0.00,Snow,Light Snow,270,2013-12-31 03:32:00
9:56 PM,0.1,-9999,N/A,30.24,6.0,West,4.6,-,0.00,,Haze,280,2013-12-31 03:56:00
10:56 PM,-2.9,-9999,N/A,30.24,10.0,West,6.9,-,0.00,,Partly Cloudy,280,2013-12-31 04:56:00
11:56 PM,-2.2,-9999,N/A,30.16,10.0,West,4.6,-,N/A,,Overcast,270,2013-12-31 05:56:00